Location: Barcelona
(41.3830°N, 2.1830°E)
Time: 15:22:06
(UTC+02:00)

ISS - Pass Details

Date: 28 March 2020
Orbit: 416 x 423 km, 51.6° (Epoch: 02 April)

Event Time Altitude Azimuth Distance (km) Brightness Sun altitude
Rises 21:29:45 0° 309° (NW) 2,361 1.4 -25.2°
Reaches altitude 10° 21:32:13 10° 327° (NNW) 1,497 -0.1 -25.6°
Enters shadow 21:33:45 18° 351° (N) 1,109 -1.2 -25.9°
